Regional Weather Roundup
Issued by NWS Grand Forks, ND

Home | Current Version | Previous Version | Text Only | Print | Product List | Glossary On
Versions: 1 2 3 4 5 6 7 8 9 10 11 12 13 14 15 16 17 18 19 20 21 22 23 24 25 26 27 28 29 30 31 32 33 34 35 36 37 38 39 40 41 42 43 44 45 46 47 48 49 50
000
ASUS43 KFGF 250910
RWRFGF
PRAIRIE TO PINES  WEATHER ROUNDUP
NATIONAL WEATHER SERVICE EASTERN NORTH DAKOTA/GRAND FORKS ND
400 AM CDT MON MAY 25 2015

 **SATELLITE DATA USED TO AUGMENT SKY COVER AT AUTOMATED STATIONS**
 *****  WEATHER ACROSS EASTERN NORTH DAKOTA  *****

CITY           SKY/WX    TMP DP  RH WIND       PRES   REMARKS
GRAND FORKS    CLOUDY    54  51  90 NW8       29.82F
GRAND FRKS AFB CLOUDY    54  51  89 CALM      29.82F
GRAND FRKS NWS   N/A     55 N/A N/A MISG        N/A
DEVILS LAKE    CLOUDY    55  50  82 N6        29.83F
FARGO          LGT RAIN  58  56  93 N8        29.81F FOG
WAHPETON ARPT  CLOUDY    55  54  94 N12       29.76F
$$

 ***** WEATHER ACROSS CENTRAL AND WESTERN NORTH DAKOTA  *****

CITY           SKY/WX    TMP DP  RH WIND       PRES   REMARKS
BISMARCK       LGT RAIN  55  54  96 NE6       29.85F
MINOT          CLOUDY    54  47  77 SW5       29.85F
JAMESTOWN      LGT RAIN  56  55  97 NW7       29.83F
MINOT AFB      CLOUDY    52  52 100 NW6       29.85F
GARRISON         N/A     56  51  84 CALM      29.86F
WILLISTON      PTCLDY    43  40  89 CALM      29.88F
DICKINSON      CLOUDY    54  49  83 N6        29.86S
HETTINGER      RAIN      53  51  93 NE6       29.86S FOG
$$

 *****  OTHER AIRPORT OBSERVATIONS IN OUR AREA  *****

CITY           SKY/WX    TMP DP  RH WIND       PRES   REMARKS
WALHALLA       FAIR      50  50 100 CALM      29.84F
GRAFTON AIRPOR FAIR      55  50  82 CALM      29.83S
VALLEY CITY AR RAIN      55  55 100 N5        29.84S
CANDO          FAIR      54  48  82 N7        29.85F
CAVALIER APRT  FAIR      57  46  67 N8        29.83F
GWINNER        NOT AVBL
SHEYENNE NWR     N/A     57  56  97 N7        29.95S
ROLLA          CLOUDY    52  48  87 N7        29.88S
 ***** THE ABOVE OBSERVATIONS ARE NON NWS ARE NOT QUALITY
       CONTROLLED AND MAY MIS-REPORT RAIN FOR SNOW...
$$

  *****  WEATHER ACROSS NORTHERN MINNESOTA  *****

CITY           SKY/WX    TMP DP  RH WIND       PRES   REMARKS
FLAG ISLAND    CLOUDY    57  52  82 N8        29.82S
WARROAD        CLOUDY    54  48  82 CALM      29.83S
ROSEAU         CLOUDY    54  48  82 CALM      29.82F
HALLOCK        CLOUDY    55  50  82 CALM      29.81F
THF RVR FALLS  CLOUDY    57  50  77 CALM      29.84S
BAUDETTE       CLOUDY    53  51  93 CALM      29.81F
WASKISH        CLOUDY    55  54  94 CALM      29.83F
CROOKSTON      CLOUDY    59  52  77 CALM      29.84S
STEPHEN NDAWN    N/A     55  48  76 S3          N/A
GREENBUSH NDAW   N/A     55  54  94 SW1         N/A
$$
  *****  WEATHER ACROSS CENTRAL AND WEST MINNESOTA  *****

CITY           SKY/WX    TMP DP  RH WIND       PRES   REMARKS
FOSSTON        DRIZZLE   55  48  76 CALM      29.84F
BEMIDJI        DRIZZLE   56  53  92 CALM      29.84S
PARK RAPIDS    LGT RAIN  57  54  89 NE9G17    29.79F
ELBOW LAKE     LGT RAIN  56  56  98 NE8       29.74S
WADENA         HVY RAIN  55  55 100 NE10      29.75F
DETROIT LAKES  LGT RAIN  55  54  94 NE9       29.81F
MOORHEAD       LGT RAIN  57  55  94 N12       29.82F
FERGUS FALLS   RAIN      57  57 100 NE9       29.76F
MORRIS MN      LGT RAIN  57  57 100 N5        29.72S
STAPLES        RAIN      55  55 100 NE6       29.74F
$$
  *****  WEATHER ELSEWHERE ACROSS MINNESOTA  *****

CITY           SKY/WX    TMP DP  RH WIND       PRES   REMARKS
DULUTH         LGT RAIN  58  55  90 NE13      29.80F
INTRNTL FALLS  CLOUDY    53  49  86 CALM      29.82F
ELY            DRIZZLE   55  52  88 CALM      29.85F
CLOQUET        RAIN      57  55  94 NE9G16    29.78F
WHEATON        DRIZZLE   55  54  94 N8        29.76F
BRAINERD       LGT RAIN  57  56  96 NE10      29.74F FOG
HIBBING        RAIN      56  54  93 E5        29.83F
ALEXANDRIA     LGT RAIN  57  57 100 NE7       29.74F FOG
SAINT CLOUD    LGT RAIN  57  56  96 E8        29.70F FOG
MINNEAPOLIS    CLOUDY    58  57  97 E9        29.69F
$$

  *****  WEATHER ACROSS SOUTH DAKOTA  *****

CITY           SKY/WX    TMP DP  RH WIND       PRES   REMARKS
SIOUX FALLS    CLOUDY    59  57  93 W3        29.74R
BROOKINGS      CLOUDY    55  55 100 NW3       29.74S
WATERTOWN      RAIN      56  55  97 N5        29.74F FOG
HURON          CLOUDY    57  57 100 N3        29.75S
SISSETON         N/A     57  57 100 N10       29.74F
ABERDEEN       LGT RAIN  57  56  96 NE9       29.77F FOG
MITCHELL       CLOUDY    59  58  96 N6        29.75F FOG
PIERRE         CLOUDY    57  57 100 NE5       29.77S FOG
MOBRIDGE       CLOUDY    57  57 100 NE7       29.78F
RAPID CITY     CLOUDY    51  50  96 N9        29.82F
$$

  *****  SOME WEATHER IN NEARBY STATES *****

CITY           SKY/WX    TMP DP  RH WIND       PRES   REMARKS
GLASGOW MT     CLEAR     53  43  68 E3        29.89S
GREAT FALLS MT CLEAR     45  41  86 SW3       29.93S
CHEYENNE WY    LGT RAIN  44  41  89 N8        29.88F
SCOTTSBLUFF NE CLOUDY    51  50  96 W7        29.82S
OMAHA NE       CLOUDY    64  61  90 S7        29.76S
DES MOINES IA  DRIZZLE   64  61  90 SW9       29.75F
DAVENPORT IA   LGT RAIN  67  64  90 S22       29.72F
CHICAGO IL     CLOUDY    71  59  65 S14       29.84S
EAU CLAIRE WI  LGT RAIN  57  55  93 E5        29.72F FOG
LA CROSSE WI   CLOUDY    62  60  93 E3        29.71F FOG
$$

  *****  SOME NATIONAL WEATHER *****

CITY           SKY/WX    TMP DP  RH WIND       PRES   REMARKS
LA GUARDIA NY  PTCLDY    65  52  62 S7        30.26R
RALEIGH NC     PTCLDY    64  56  75 CALM      30.33R
ATLANTA GA     MOCLDY    68  60  75 SE7       30.26R
NEW ORLEANS LA CLOUDY    77  72  84 SE8       30.01F
OKLAHOMA CITY  CLOUDY    65  64  97 S13       29.84R
ALBUQUERQUE NM MOCLDY    52  47  83 CALM      29.98F
SALT LAKE CITY MOCLDY    52  48  86 SE7       29.92S
LOS ANGELES CA MOCLDY    57  55  94 W5        29.97S
BOISE ID       CLEAR     57  46  66 SE8       29.87S
SEATTLE WA     CLOUDY    53  47  79 SW9       30.02S
$$

*** WEATHER ACROSS MANITOBA...SASKATCHEWAN AND ONTARIO ***
                ***ONTARIO***

CITY           SKY/WX    TMP DP  RH WIND       PRES   REMARKS
GERALDTON      CLEAR     46  43  87 CALM      29.90F
THUNDER BAY    CLOUDY    48  41  76 E8        29.88F
SIOUX LOOKOUT  PTCLDY    45  43  93 E2        29.85F
TORONTO        LGT RAIN  63  54  72 NE3       30.11F
BIG TROUT LK   CLEAR     37  32  81 E6        29.94F
PICKLE LAKE    NOT AVBL
DRYDEN         MOCLDY    55  46  71 NE5       29.84F
KENORA         MOCLDY    59  43  55 NE7       29.85S
$$
                *** MANITOBA***

CITY           SKY/WX    TMP DP  RH WIND       PRES   REMARKS
BRANDON        PTCLDY    48  41  76 NW6       29.87F
DAUPHIN        CLEAR     59  43  55 W6        29.84F
ISLAND LAKE    CLEAR     45  39  81 E2        29.87F
PILOT MOUND      N/A     54  45  71 N7          N/A
THE PAS        PTCLDY    48  43  81 CALM      29.85S
THOMPSON       CLEAR     43  36  75 E7        29.89F
WINNIPEG       CLEAR     55  45  67 E3        29.84F
LYNN LAKE      CLEAR     39  34  81 VRB2      29.86F
CHURCHILL      PTCLDY    25  25 100 SW5       29.98F WCI  19
$$
                ***SASKATCHEWAN***

CITY           SKY/WX    TMP DP  RH WIND       PRES   REMARKS
ESTEVAN        PTCLDY    46  45  93 N5        29.89F
KINDERSLEY     PTCLDY    50  28  43 S8        29.90S
LLOYDMINSTER   PTCLDY    57  37  47 S13       29.88S
PRINCE ALBERT  CLEAR     45  39  81 NW2       29.86S
REGINA         PTCLDY    50  41  71 SE5       29.89S
YORKTON        CLEAR     59  43  55 S8        29.85F
N. BATTLEFORD  CLEAR     48  43  81 NE3       29.90S
LA RONGE       PTCLDY    41  36  81 CALM      29.83S
SASKATOON      CLEAR     48  41  76 NW6       29.89S
SWIFT CURRENT  MOCLDY    61  34  36 S5        29.90S
$$
NOTE: THESE ARE AUTOMATED STATIONS WITH LIMITED QUALITY CONTROL
      "FAIR" INDICATES FEW OR NO CLOUDS BELOW 12,000 FEET WITH NO
      SIGNIFICANT WEATHER AND/OR OBSTRUCTIONS TO VISIBILITY.
      SKY/WX - SKY CONDITION AND SIGNIFICANT WEATHER.
      TMP - AIR TEMPERATURE.    DP   - DEWPOINT TEMPERATURE.
      RH  - RELATIVE HUMIDITY.  PRES - PRESSURE.
      HX  - HEAT INDEX.         WCI  - WIND CHILL INDEX.
$



USA.gov is the U.S. government's official web portal to all federal, state and local government web resources and services.